User: anonymous   Login
Location: Unspecified
(0.0000°N, 0.0000°E)
Time: 02:05:09
(UTC+00:00)
Language:

ISS - Orbit

View from above orbital plane
View from above orbital plane
View from above satellite
View from above satellite

Ground track
Ground track

The orbit data is extracted from the following two-line orbital elements,

1 25544U 98067A   16151.85968536  .00002227  00000-0  40052-4 0  9992
2 25544  51.6433 144.4691 0001773 132.2290 290.3123 15.54709922  2297
Epoch (UTC): 30 May 2016 20:37:56
Eccentricity: 0.0001773
inclination: 51.6433°
perigee height: 402 km
apogee height: 404 km
right ascension of ascending node: 144.4691°
argument of perigee: 132.2290°
revolutions per day: 15.54709922
mean anomaly at epoch: 290.3123°
orbit number at epoch: 229

The dashed part of the orbit path shows where the satellite is in the earth's shadow,  

DLR